• In India
  • List of Countries
  • For 7 days
  • Water Temperature
  • Satellite Maps
  • Weather Map
  • Weather Widgets
  • user-avatar
    Login

    Hourly Weather Munich

    Today, 20 January, Saturday

    Time Temperature Precipitation Wind Pressure Humidity
    00:00 -1°C° 0.7 mm 4 mps 713 mmHg 89%
    01:00 -1°C° 0 mm 4 mps 713 mmHg 88%
    02:00 -1°C° 0.4 mm 4 mps 713 mmHg 89%
    03:00 -2°C° 0.4 mm 4 mps 713 mmHg 89%
    04:00 -2°C° 0.4 mm 4 mps 713 mmHg 90%
    05:00 -2°C° 0 mm 4 mps 713 mmHg 89%
    06:00 -3°C° 0 mm 4 mps 713 mmHg 88%
    07:00 -2°C° 0 mm 3 mps 712 mmHg 88%
    08:00 -2°C° 0.2 mm 4 mps 712 mmHg 85%
    09:00 -2°C° 0.2 mm 4 mps 712 mmHg 83%
    10:00 -1°C° 0.2 mm 5 mps 712 mmHg 80%
    11:00 0°C° 0.1 mm 4 mps 711 mmHg 79%
    12:00 0°C° 0.1 mm 4 mps 711 mmHg 77%
    13:00 +2°C° 0.1 mm 3 mps 710 mmHg 76%
    14:00 +2°C° 0.1 mm 3 mps 709 mmHg 78%
    15:00 +3°C° 0.1 mm 2 mps 708 mmHg 80%
    16:00 +2°C° 0.1 mm 2 mps 707 mmHg 81%
    17:00 +2°C° 0.7 mm 2 mps 706 mmHg 83%
    18:00 +1°C° 0.7 mm 2 mps 705 mmHg 84%
    19:00 +1°C° 0.7 mm 2 mps 704 mmHg 85%
    20:00 +1°C° 1.3 mm 2 mps 704 mmHg 88%
    21:00 -1°C° 1.3 mm 2 mps 704 mmHg 91%
    22:00 -1°C° 1.3 mm 2 mps 704 mmHg 94%
    23:00 -1°C° 0.7 mm 2 mps 704 mmHg 94%

    Tomorrow, 21 January, Sunday

    Time Temperature Precipitation Wind Pressure Humidity
    00:00 +1°C° 0.7 mm 2 mps 704 mmHg 95%
    01:00 0°C° 0.7 mm 3 mps 705 mmHg 95%
    02:00 0°C° 0.5 mm 3 mps 705 mmHg 95%
    03:00 0°C° 0.5 mm 3 mps 705 mmHg 96%
    04:00 0°C° 0.5 mm 3 mps 705 mmHg 96%
    05:00 -1°C° 0.7 mm 4 mps 705 mmHg 96%
    06:00 -1°C° 0.7 mm 4 mps 706 mmHg 96%
    07:00 -1°C° 0.7 mm 5 mps 706 mmHg 95%
    08:00 -1°C° 0.4 mm 5 mps 707 mmHg 94%
    09:00 -1°C° 0.4 mm 5 mps 708 mmHg 93%
    10:00 -2°C° 0.4 mm 6 mps 709 mmHg 92%
    11:00 -2°C° 0.2 mm 6 mps 710 mmHg 92%
    12:00 -1°C° 0.2 mm 5 mps 711 mmHg 92%
    13:00 -1°C° 0.2 mm 5 mps 712 mmHg 92%
    14:00 -1°C° 0.2 mm 5 mps 713 mmHg 92%
    15:00 -1°C° 0.2 mm 4 mps 714 mmHg 91%
    16:00 -1°C° 0.2 mm 4 mps 715 mmHg 91%
    17:00 -1°C° 0.1 mm 3 mps 715 mmHg 92%
    18:00 -2°C° 0.1 mm 2 mps 716 mmHg 93%
    19:00 -2°C° 0.1 mm 2 mps 716 mmHg 94%
    20:00 0°C° 0.1 mm 1 mps 716 mmHg 94%
    21:00 0°C° 0.1 mm 1 mps 716 mmHg 94%
    22:00 0°C° 0.1 mm 1 mps 716 mmHg 93%
    23:00 -2°C° 0.5 mm 2 mps 716 mmHg 94%

    Day after tomorrow, 22 January, Monday

    Time Temperature Precipitation Wind Pressure Humidity
    00:00 -2°C° 0.5 mm 2 mps 715 mmHg 95%
    01:00 -2°C° 0.5 mm 2 mps 714 mmHg 95%
    02:00 -2°C° 1.4 mm 2 mps 713 mmHg 96%
    03:00 -1°C° 1.4 mm 2 mps 712 mmHg 96%
    04:00 -1°C° 1.4 mm 3 mps 711 mmHg 97%
    05:00 -1°C° 2.7 mm 3 mps 711 mmHg 97%
    06:00 0°C° 2.7 mm 3 mps 711 mmHg 97%
    07:00 0°C° 2.7 mm 3 mps 711 mmHg 98%
    08:00 0°C° 1.2 mm 3 mps 711 mmHg 98%
    09:00 +1°C° 1.2 mm 3 mps 711 mmHg 98%
    10:00 +2°C° 1.2 mm 2 mps 712 mmHg 98%
    11:00 +1°C° 0.8 mm 3 mps 712 mmHg 99%
    12:00 +2°C° 0.8 mm 3 mps 712 mmHg 99%
    13:00 +2°C° 0.8 mm 3 mps 712 mmHg 99%
    14:00 +3°C° 0.3 mm 4 mps 712 mmHg 99%
    15:00 +3°C° 0.3 mm 4 mps 712 mmHg 99%
    16:00 +3°C° 0.3 mm 4 mps 713 mmHg 99%
    17:00 +3°C° 0.1 mm 3 mps 713 mmHg 99%
    18:00 +3°C° 0.1 mm 3 mps 713 mmHg 99%
    19:00 +3°C° 0.1 mm 3 mps 714 mmHg 98%
    20:00 +3°C° 0.1 mm 3 mps 714 mmHg 98%
    21:00 +3°C° 0.1 mm 2 mps 714 mmHg 98%
    22:00 +3°C° 0.1 mm 2 mps 715 mmHg 97%
    23:00 +3°C° 0.5 mm 2 mps 715 mmHg 98%

    23 January, Tuesday

    Time Temperature Precipitation Wind Pressure Humidity
    00:00 +3°C° 0.5 mm 2 mps 715 mmHg 98%
    01:00 +4°C° 0.5 mm 1 mps 715 mmHg 98%
    02:00 +4°C° 0.7 mm 1 mps 715 mmHg 98%
    03:00 +4°C° 0.7 mm 1 mps 716 mmHg 98%
    04:00 +4°C° 0.7 mm 1 mps 716 mmHg 98%
    05:00 +3°C° 0.1 mm 1 mps 717 mmHg 98%
    06:00 +3°C° 0.1 mm 1 mps 717 mmHg 98%
    07:00 +3°C° 0.1 mm 1 mps 718 mmHg 98%
    08:00 +3°C° 0 mm 1 mps 719 mmHg 99%
    09:00 +3°C° 0 mm 1 mps 720 mmHg 99%
    10:00 +3°C° 0 mm 1 mps 720 mmHg 99%
    11:00 +4°C° 0 mm 1 mps 721 mmHg 99%
    12:00 +4°C° 0 mm 1 mps 721 mmHg 99%
    13:00 +4°C° 0 mm 1 mps 721 mmHg 99%
    14:00 +4°C° 0 mm 1 mps 721 mmHg 99%
    15:00 +4°C° 0 mm 1 mps 722 mmHg 99%
    16:00 +4°C° 0 mm 1 mps 722 mmHg 99%
    17:00 +4°C° 0 mm 1 mps 722 mmHg 98%
    18:00 +4°C° 0 mm 1 mps 723 mmHg 97%
    19:00 +3°C° 0 mm 1 mps 723 mmHg 96%
    20:00 +3°C° 0 mm 1 mps 723 mmHg 95%
    21:00 +3°C° 0 mm 1 mps 723 mmHg 95%
    22:00 +3°C° 0 mm 1 mps 724 mmHg 94%
    23:00 +2°C° 0 mm 2 mps 724 mmHg 93%

    24 January, Wednesday

    Time Temperature Precipitation Wind Pressure Humidity
    00:00 +1°C° 0 mm 2 mps 724 mmHg 91%
    01:00 +1°C° 0 mm 2 mps 723 mmHg 90%
    02:00 +1°C° 0 mm 2 mps 723 mmHg 88%
    03:00 +1°C° 0 mm 2 mps 723 mmHg 87%
    04:00 +1°C° 0 mm 2 mps 723 mmHg 86%
    05:00 +1°C° 0 mm 2 mps 723 mmHg 85%
    06:00 -1°C° 0 mm 2 mps 723 mmHg 83%
    07:00 -1°C° 0 mm 2 mps 723 mmHg 82%
    08:00 +1°C° 0 mm 2 mps 723 mmHg 83%
    09:00 +2°C° 0 mm 2 mps 724 mmHg 83%
    10:00 +3°C° 0 mm 2 mps 724 mmHg 83%
    11:00 +5°C° 0 mm 2 mps 723 mmHg 84%
    12:00 +7°C° 0 mm 1 mps 723 mmHg 85%
    13:00 +8°C° 0 mm 1 mps 723 mmHg 86%
    14:00 +8°C° 0 mm 1 mps 723 mmHg 86%
    15:00 +7°C° 0 mm 1 mps 722 mmHg 86%
    16:00 +7°C° 0 mm 1 mps 722 mmHg 86%
    17:00 +6°C° 0 mm 1 mps 722 mmHg 85%
    18:00 +4°C° 0 mm 2 mps 722 mmHg 83%
    19:00 +3°C° 0 mm 2 mps 722 mmHg 82%
    20:00 +3°C° 0 mm 2 mps 722 mmHg 81%
    21:00 +3°C° 0 mm 2 mps 722 mmHg 80%
    22:00 +2°C° 0 mm 2 mps 722 mmHg 79%
    23:00 +2°C° 0 mm 2 mps 722 mmHg 77%

    25 January, Thursday

    Time Temperature Precipitation Wind Pressure Humidity
    00:00 +2°C° 0 mm 2 mps 722 mmHg 76%
    01:00 +2°C° 0 mm 2 mps 721 mmHg 75%
    02:00 +2°C° 0 mm 2 mps 721 mmHg 74%
    03:00 +2°C° 0 mm 2 mps 721 mmHg 73%
    04:00 +2°C° 0 mm 2 mps 721 mmHg 72%
    05:00 +2°C° 0 mm 2 mps 720 mmHg 72%
    06:00 +2°C° 0 mm 2 mps 720 mmHg 72%
    07:00 +2°C° 0 mm 2 mps 720 mmHg 71%
    08:00 +2°C° 0 mm 2 mps 720 mmHg 72%
    09:00 +3°C° 0 mm 2 mps 720 mmHg 73%
    10:00 +4°C° 0 mm 2 mps 720 mmHg 73%
    11:00 +6°C° 0 mm 2 mps 719 mmHg 74%
    12:00 +7°C° 0 mm 2 mps 719 mmHg 75%
    13:00 +9°C° 0 mm 1 mps 718 mmHg 76%
    14:00 +9°C° 0 mm 1 mps 718 mmHg 77%
    15:00 +8°C° 0 mm 1 mps 717 mmHg 79%
    16:00 +8°C° 0 mm 1 mps 716 mmHg 80%
    17:00 +7°C° 0 mm 1 mps 716 mmHg 80%
    18:00 +6°C° 0 mm 1 mps 716 mmHg 80%
    19:00 +5°C° 0 mm 1 mps 716 mmHg 80%
    20:00 +4°C° 0 mm 1 mps 716 mmHg 80%
    21:00 +4°C° 0 mm 1 mps 716 mmHg 80%
    22:00 +4°C° 0 mm 1 mps 715 mmHg 80%
    23:00 +4°C° 0 mm 1 mps 715 mmHg 81%
    Show more